Temperature
25 24 24 25 26 26 29 31 31 31 31 31 31 30 29 28 27 25 25 23 22 22 22 21 20 20 20 20 19 19 19 19 19 19 19 19 19 19 18 18 18 18 18 18 18 18 18 18 18
25 24 26 27 26 26 29 31 31 32 32 31 31 30 29 27 27 25 24 22 22 22 21 21 20 20 20 19 19 19 19 19 19 19 19 19 18 18 18 18 18 18 18 18 18 18 18 18 18
25 25 27 28 27 28 30 32 32 32 32 31 30 29 28 27 26 25 23 22 21 20 21 21 20 20 20 19 19 19 19 19 19 19 18 18 18 18 18 18 18 18 18 18 18 18 18 18 18
25 27 28 29 29 31 32 32 33 32 32 31 30 29 27 26 25 24 23 22 21 20 21 21 20 20 20 19 19 19 19 19 19 19 18 18 18 18 18 18 18 18 18 18 18 18 18 18 18
27 28 28 28 31 33 34 33 32 32 32 31 30 28 26 26 25 24 23 22 21 20 21 21 20 20 20 19 19 19 19 19 18 18 18 18 18 18 18 18 18 18 18 18 18 18 18 18 18
29 29 28 28 31 33 34 33 33 32 32 31 29 27 26 25 24 24 24 23 22 20 21 21 20 20 20 19 19 19 19 18 18 18 18 18 18 18 18 18 18 18 18 18 18 18 18 18 18
30 29 29 30 32 33 34 33 33 32 32 31 29 27 25 25 25 24 24 23 22 21 21 21 21 20 20 19 19 19 19 19 18 18 18 18 18 18 18 18 18 18 18 18 18 18 18 18 18
30 31 31 32 32 32 34 33 33 32 32 31 30 27 26 25 25 24 24 23 22 21 20 20 20 20 20 19 19 19 19 18 19 18 18 18 18 18 18 18 18 18 18 18 18 18 18 18 18
31 30 30 32 33 33 33 33 33 32 31 30 29 28 26 25 25 24 24 23 22 21 20 20 19 20 19 19 19 19 19 19 19 19 18 18 18 18 18 18 18 18 18 18 18 18 18 18 18
31 30 31 33 34 34 33 33 33 31 30 28 27 27 26 25 25 24 24 23 22 22 21 20 20 19 19 18 19 19 19 19 18 18 18 18 18 18 18 18 18 18 18 18 18 18 18 18 18
33 32 33 34 34 34 34 33 33 32 29 28 27 26 25 25 25 24 24 24 23 22 22 21 20 20 19 19 19 19 18 19 18 18 18 18 18 18 18 18 18 18 18 18 18 18 18 18 18
33 34 34 33 34 34 34 34 33 32 30 29 28 26 26 25 25 25 24 23 23 22 22 21 20 20 20 19 19 19 19 19 18 18 18 18 18 18 18 18 18 18 18 18 18 18 18 18 18
33 34 34 34 34 34 34 33 32 31 31 30 28 27 26 26 25 24 24 23 22 22 22 21 20 20 20 20 19 19 19 19 19 19 18 18 18 18 18 18 18 18 18 18 18 18 18 18 18
34 34 34 34 34 34 34 33 32 32 31 30 29 27 26 26 25 24 24 23 22 22 22 21 20 20 20 20 19 19 19 19 19 19 18 18 18 18 18 18 18 18 18 18 18 18 18 18 18
33 33 34 34 34 34 34 32 32 31 31 31 29 28 27 26 25 25 24 23 22 22 21 21 20 20 19 19 19 19 19 19 19 19 18 18 18 18 18 18 18 18 18 18 18 18 18 18 18
33 32 32 34 34 34 33 31 31 31 31 31 30 28 27 26 25 25 24 23 22 21 21 20 20 19 19 19 19 19 19 19 19 19 18 19 18 18 18 18 18 18 18 18 18 18 18 18 18
32 32 32 33 34 34 33 31 31 31 31 31 30 28 27 26 25 25 24 23 22 21 20 20 20 19 19 19 19 19 19 19 19 19 18 18 18 18 18 18 18 18 18 18 18 18 18 18 18
32 33 33 33 34 34 32 31 31 31 31 31 30 29 27 26 25 24 23 22 21 21 20 20 20 19 19 19 19 19 19 19 19 18 18 18 18 18 18 18 18 18 18 18 18 18 18 18 18
33 33 33 33 34 33 32 32 32 32 32 32 31 29 27 26 25 24 23 22 21 20 20 20 20 19 19 19 19 19 19 19 18 18 18 18 18 18 18 18 18 18 18 18 18 18 18 18 18
32 32 32 33 34 33 32 32 33 33 33 32 30 29 28 26 25 24 23 22 21 20 20 20 19 19 19 19 19 19 19 18 18 18 18 18 18 18 18 18 18 18 18 18 18 18 18 18 18
32 32 32 32 33 33 32 31 32 32 32 31 30 29 29 27 25 24 23 22 21 20 20 19 19 19 19 19 19 18 18 18 18 18 18 18 18 18 18 18 18 18 18 18 18 18 18 18 18
31 32 33 32 32 31 32 30 31 31 31 31 31 30 29 27 26 24 23 22 21 20 20 19 19 19 19 19 18 18 18 18 18 18 18 18 18 18 18 18 18 18 18 18 18 18 18 18 18
32 33 32 32 31 31 32 31 30 30 30 30 30 30 29 27 26 24 23 22 21 20 20 19 19 19 19 18 18 18 18 18 18 18 18 18 18 18 18 18 18 18 18 18 18 18 18 18 18
32 32 32 31 31 29 30 30 30 30 29 29 30 29 28 27 26 24 23 22 21 20 20 19 19 19 18 18 18 18 18 18 18 18 18 18 18 18 18 18 18 18 18 18 18 18 18 18 18
32 30 29 29 29 29 31 30 30 30 30 30 30 29 28 27 26 24 23 22 21 20 20 19 19 18 18 18 18 18 18 18 18 18 18 18 18 18 18 18 18 18 18 18 17 18 18 18 18
31 31 29 28 28 29 30 29 30 31 31 30 30 29 28 27 26 24 23 22 21 20 20 19 19 18 18 18 18 18 18 18 18 18 18 18 18 18 18 18 18 18 17 17 17 17 17 17 17
31 31 32 31 30 29 29 29 30 31 31 30 29 28 28 27 26 24 23 22 21 20 20 19 19 18 18 18 18 18 18 18 17 17 17 17 18 17 17 18 17 17 17 17 17 17 17 17 17
32 32 31 30 28 28 28 29 28 29 29 30 29 28 27 26 25 24 23 22 21 21 20 19 19 19 18 18 18 18 18 17 17 17 17 17 17 17 17 17 17 17 17 17 17 17 17 17 17
31 31 31 30 30 29 28 27 29 28 29 29 29 27 27 26 25 24 23 22 21 20 20 19 19 18 18 18 18 17 17 17 17 17 17 17 17 17 17 17 17 17 17 17 17 17 17 17 17
32 31 31 29 29 29 29 27 28 27 28 29 28 26 26 25 24 23 22 21 21 20 19 19 18 18 18 18 17 17 17 17 17 17 17 17 17 17 17 17 17 17 17 17 17 17 17 17 17
Wind_Speed
10 13 11 7 3 2 6 12 13 13 14 13 13 14 17 15 11 11 15 23 25 21 19 18 17 18 17 17 16 16 16 15 15 15 14 14 14 15 15 15 16 17 17 17 17 17 17 17 16
11 14 9 3 2 1 9 11 13 13 12 12 14 17 18 17 16 16 18 22 24 21 19 18 18 18 17 17 16 16 15 15 14 14 13 13 14 14 15 15 16 16 16 16 16 16 16 16 15
12 16 7 4 3 3 9 11 11 11 10 11 14 17 14 13 15 15 19 22 22 19 19 19 19 18 17 17 16 16 15 14 14 13 13 13 13 14 14 15 15 16 16 16 16 16 16 15 13
8 7 5 4 2 5 9 9 10 9 10 12 12 12 12 11 14 18 20 22 22 20 20 19 19 18 17 16 16 15 15 14 14 13 13 13 13 13 13 14 15 15 15 15 15 15 14 13 11
9 5 4 5 3 7 10 9 10 8 9 12 16 16 12 14 18 20 19 21 20 20 19 19 18 17 16 16 15 15 14 14 13 13 13 13 13 13 14 14 15 15 15 14 14 14 13 11 9
6 4 4 4 0 6 8 8 9 8 8 10 15 16 11 14 17 18 18 18 19 21 19 19 18 17 16 15 15 15 14 14 13 13 13 13 13 13 14 14 14 14 14 14 13 12 11 10 8
9 7 9 7 2 5 6 7 7 7 9 8 12 14 11 14 16 17 17 17 19 21 19 17 17 16 15 15 15 14 14 14 14 13 13 13 14 14 14 14 14 14 13 12 12 11 10 9 6
9 8 10 5 2 5 5 6 6 7 7 7 9 10 12 16 16 16 15 16 18 19 18 16 17 16 15 14 14 14 14 14 14 13 13 14 14 14 14 14 13 13 12 11 11 10 10 8 6
11 9 8 4 3 5 4 4 5 6 7 8 10 13 19 20 18 16 15 14 14 15 16 16 16 15 15 15 15 14 14 14 14 13 13 14 12 13 12 14 13 12 11 10 10 10 9 8 7
7 8 7 3 3 4 3 2 4 4 8 9 10 15 20 20 18 16 15 15 14 14 15 14 16 14 14 14 14 13 13 13 12 12 13 11 9 11 13 15 13 12 10 9 9 9 9 8 8
9 10 7 5 4 2 0 3 4 6 5 8 11 15 18 18 17 16 15 15 14 14 13 14 13 11 11 10 12 10 10 11 10 12 11 9 10 11 13 11 10 10 10 9 9 10 9 9 6
11 10 7 5 5 3 2 0 3 5 6 13 15 16 17 18 17 15 14 14 13 11 11 13 13 9 7 9 8 8 8 8 8 10 10 9 5 6 8 6 9 10 9 7 7 6 7 6 6
11 11 9 7 6 5 4 1 2 4 7 14 17 18 17 17 16 14 13 12 12 9 9 11 11 8 6 5 4 7 6 8 9 10 9 9 5 4 5 4 5 6 8 6 3 3 3 2 3
10 10 10 9 8 5 4 3 3 4 8 12 15 16 16 15 16 15 14 12 13 11 9 10 10 8 6 5 2 3 5 6 8 9 10 9 7 5 5 3 2 3 5 5 3 5 3 1 2
11 12 12 12 9 7 6 5 3 3 6 10 13 13 13 12 15 15 15 13 13 11 10 10 9 9 7 7 5 5 6 8 6 7 10 9 7 8 6 4 3 3 6 6 4 4 3 3 3
12 13 14 12 10 7 6 6 2 6 7 9 12 13 13 11 13 14 14 12 12 12 11 10 11 11 8 7 5 4 5 6 5 8 10 9 8 10 6 4 4 5 5 4 3 2 2 2 3
14 14 13 9 9 7 6 4 3 8 7 9 11 13 14 12 12 13 14 13 12 11 11 10 9 11 10 8 5 4 3 4 5 7 9 9 9 10 6 3 4 6 4 3 4 3 1 2 3
11 11 9 7 8 7 6 5 7 9 8 9 11 12 14 13 12 12 12 13 11 11 11 10 9 9 9 7 5 4 4 4 4 5 7 11 10 10 7 4 5 4 3 3 2 3 2 1 2
14 12 9 7 5 5 7 7 9 9 8 8 10 12 13 13 12 12 12 13 12 11 11 11 10 9 8 7 7 7 6 5 5 5 8 11 11 10 7 4 5 3 3 4 5 3 3 2 1
14 14 12 7 6 5 8 9 7 7 8 7 8 10 12 12 12 12 12 13 13 12 11 11 10 10 9 8 6 5 6 6 6 5 7 10 10 10 9 4 5 5 4 4 4 3 2 3 3
14 13 12 9 6 7 9 10 9 8 7 8 10 11 12 13 13 13 12 12 12 12 12 11 10 9 9 8 6 5 4 4 5 6 6 7 9 9 7 8 5 5 5 5 5 5 4 3 3
13 13 13 11 10 9 10 10 7 8 8 9 9 10 10 11 12 12 13 12 12 12 12 10 10 9 8 8 8 9 7 7 7 6 6 7 8 8 8 7 6 5 4 6 7 6 4 3 3
13 11 11 11 11 13 12 10 5 7 7 7 9 9 9 10 12 10 10 11 11 11 11 10 10 9 8 8 8 8 7 6 5 6 7 8 7 7 8 7 6 6 4 6 6 5 5 3 4
12 11 10 11 12 14 14 12 6 5 5 6 6 6 8 10 12 11 10 10 9 10 10 10 10 8 8 8 8 8 9 8 6 6 7 7 6 7 8 8 6 6 5 5 5 5 6 4 3
13 11 9 10 10 12 11 11 4 7 7 5 7 6 7 9 12 11 11 11 9 9 9 9 9 8 9 9 9 8 8 8 7 7 7 7 6 7 8 8 7 6 5 6 5 6 5 5 4
16 16 12 9 8 7 7 7 5 10 9 7 8 8 8 10 11 11 10 10 9 9 9 8 8 8 8 8 8 7 8 6 6 7 7 7 6 6 7 7 7 6 6 7 6 6 6 6 5
18 17 18 15 13 8 6 6 8 10 10 9 9 9 9 10 11 12 11 9 9 8 8 7 7 7 7 7 7 7 7 7 6 6 6 5 5 6 7 8 8 8 7 6 6 5 6 6 6
18 16 12 13 11 10 7 8 5 8 8 10 10 10 10 11 11 10 10 9 8 8 7 6 6 6 5 5 5 6 5 5 4 4 5 5 5 5 6 8 7 7 7 7 6 6 6 6 5
18 18 14 11 11 11 7 2 1 8 9 10 11 11 12 11 12 10 9 9 8 8 7 6 6 5 5 5 4 3 4 4 5 5 5 4 4 5 5 6 6 6 6 6 6 6 6 6 6
18 18 16 11 10 11 8 3 3 4 7 10 12 11 11 11 11 11 10 9 8 7 7 6 5 5 4 4 3 3 3 3 3 3 3 3 4 4 5 5 5 5 5 5 6 7 6 6 6
Wind_Direction
252 253 241 260 274 263 72 76 76 74 66 60 57 68 68 61 78 95 113 113 116 120 124 125 124 124 123 124 124 122 120 117 113 111 109 107 104 102 100 100 101 102 103 102 100 100 101 100 100
269 266 253 255 282 30 77 78 78 76 75 72 66 69 75 73 88 108 114 117 120 125 132 127 126 125 125 126 127 125 123 120 117 116 114 112 109 106 105 104 103 105 105 104 103 103 102 104 104
267 267 268 227 228 102 87 83 82 82 83 77 74 66 66 85 99 112 121 123 122 123 121 125 127 126 126 127 127 126 125 124 122 121 118 114 112 109 108 108 107 107 107 106 106 105 105 105 106
267 267 257 264 258 97 93 92 95 87 81 80 81 78 70 82 108 120 127 122 121 123 124 128 128 127 128 129 129 128 128 128 127 125 121 117 114 113 112 110 109 109 108 107 106 106 106 108 111
255 276 284 294 269 95 92 95 96 92 84 87 89 91 86 96 114 126 129 125 130 127 126 131 130 129 130 131 131 131 131 130 129 127 124 121 117 115 113 112 112 110 109 109 108 108 109 110 115
261 256 277 286 298 89 90 89 94 96 86 90 101 100 98 114 125 134 132 134 131 128 128 130 132 132 132 134 135 134 134 132 131 130 127 125 121 118 116 115 114 113 112 111 111 111 112 112 116
264 275 272 259 186 100 95 95 96 97 95 96 106 103 122 135 135 137 135 134 130 128 130 138 139 137 138 139 139 138 137 136 135 133 130 127 125 123 121 119 119 118 116 116 116 118 119 120 125
269 291 294 278 128 100 98 96 98 94 88 99 101 117 140 141 144 138 136 134 130 132 139 144 145 145 148 146 146 143 141 141 140 139 139 135 133 131 130 127 124 124 123 124 126 129 131 135 146
265 275 283 290 98 106 91 97 105 99 96 64 74 119 143 148 148 142 141 138 135 138 143 150 147 153 156 153 150 149 147 148 147 148 151 152 150 144 146 129 132 132 134 137 141 145 147 152 167
242 267 278 319 29 85 111 139 116 102 94 84 76 115 138 148 150 151 151 149 146 146 150 150 151 157 161 153 151 160 160 159 168 159 166 176 158 149 136 137 142 145 149 155 161 160 164 180 177
245 258 294 324 334 14 142 133 124 119 117 135 143 142 146 152 154 159 158 155 150 154 153 149 146 157 159 142 160 167 160 162 177 166 172 167 145 141 135 147 152 161 169 181 169 180 190 209 184
256 272 286 295 307 299 291 125 95 86 128 148 153 156 157 161 163 164 159 155 150 160 155 150 144 158 152 153 163 156 157 166 170 167 177 155 160 150 150 154 168 174 181 184 184 192 183 181 155
253 267 274 273 278 274 283 314 95 123 138 139 147 157 162 164 163 162 159 155 152 161 158 142 141 149 142 142 163 165 162 168 163 162 182 164 162 156 142 145 162 180 162 172 193 145 120 131 146
269 271 271 267 263 252 250 235 212 162 140 138 145 156 164 163 162 162 159 159 158 167 158 138 144 144 139 140 172 145 155 156 153 164 168 176 166 143 135 140 170 189 154 155 153 132 137 147 103
265 269 263 253 243 236 234 244 232 187 162 149 150 155 155 165 162 162 163 162 160 165 155 145 150 151 157 165 186 173 165 163 163 159 158 178 170 145 152 159 184 179 151 143 147 140 157 167 147
254 254 253 241 226 220 229 256 220 232 189 162 154 152 155 165 168 163 159 159 159 163 157 158 168 162 168 173 191 186 184 161 156 153 159 179 164 158 167 170 181 162 155 153 148 168 182 152 130
242 242 246 230 210 212 218 237 184 222 201 171 161 157 160 166 175 164 160 163 160 158 158 163 169 163 173 176 181 205 190 157 159 163 163 176 173 169 184 178 155 173 165 159 181 147 159 147 150
247 250 245 227 199 210 229 225 193 217 204 182 168 162 160 170 179 169 163 161 158 158 161 166 170 165 169 171 175 198 191 168 178 174 169 171 178 176 186 178 165 185 164 159 136 123 130 135 194
275 287 276 253 210 216 236 239 210 204 204 182 169 165 166 173 172 167 165 165 165 165 169 169 175 170 168 174 182 188 188 185 189 188 178 176 184 180 194 191 162 187 167 162 156 150 156 194 210
265 274 271 250 224 234 255 251 232 207 197 179 173 174 170 169 166 169 169 171 172 171 171 172 178 175 177 182 185 185 183 189 196 194 176 182 187 183 192 200 177 180 167 165 165 154 170 208 197
252 258 265 267 246 233 253 252 240 225 209 179 182 185 176 172 170 168 174 174 174 176 177 179 177 176 183 177 174 183 180 195 200 185 177 185 185 189 197 177 189 174 175 173 181 181 188 206 212
246 250 261 268 266 255 249 251 224 209 208 198 192 184 173 164 162 171 176 177 179 178 178 174 174 177 180 177 180 185 190 197 200 187 182 184 183 187 194 183 187 185 189 169 184 189 193 196 217
246 254 255 259 258 264 260 260 227 196 204 203 196 180 166 159 154 166 176 169 173 174 176 174 170 175 177 183 189 193 202 205 202 190 182 182 184 191 195 190 188 189 200 182 188 166 188 194 209
241 248 249 254 257 251 252 255 235 186 181 200 183 168 151 153 145 155 165 157 161 166 169 170 169 175 177 188 197 201 206 207 204 194 184 184 187 196 197 192 190 192 199 187 185 181 194 211 226
223 229 228 229 234 248 249 245 206 160 157 174 153 154 143 144 139 144 151 150 155 162 166 165 168 178 185 192 201 207 211 208 209 207 197 193 193 197 198 195 187 194 195 189 184 188 202 205 218
214 226 233 239 238 240 236 240 173 133 132 143 143 143 145 141 135 136 136 142 152 159 163 164 169 178 187 195 201 206 208 209 212 212 210 205 206 202 190 187 189 194 198 200 191 195 200 201 209
218 222 241 256 271 267 214 195 150 144 146 147 141 144 142 134 134 137 136 140 143 146 152 157 161 170 180 191 196 202 205 206 210 210 209 210 206 202 186 189 197 197 199 204 196 209 209 193 205
237 226 233 250 267 272 243 216 192 170 162 151 141 140 134 133 132 131 134 133 131 135 136 139 151 167 176 183 194 200 197 197 206 216 215 208 207 212 194 191 191 194 198 199 197 210 207 200 207
220 231 235 246 253 262 256 231 157 165 166 156 140 135 135 135 130 127 124 122 125 126 128 129 138 149 163 178 187 191 186 191 199 212 219 213 207 206 201 193 191 192 197 198 202 213 203 201 209
219 226 226 236 250 262 266 195 131 152 165 142 124 119 118 121 120 124 125 122 122 122 125 125 129 138 145 153 161 167 173 178 185 197 202 201 192 194 193 189 187 193 198 199 206 216 207 204 210
Height
1482 1481 1481 1483 1482 1484 1477 1467 1463 1465 1466 1468 1469 1471 1477 1482 1488 1500 1502 1503 1505 1508 1512 1515 1517 1520 1522 1525 1527 1529 1530 1532 1534 1535 1537 1538 1539 1540 1542 1543 1544 1545 1546 1547 1548 1549 1550 1551 1552
1482 1482 1485 1483 1487 1491 1479 1465 1466 1466 1468 1470 1472 1475 1480 1486 1491 1498 1502 1505 1507 1510 1513 1516 1519 1522 1524 1526 1529 1531 1532 1534 1536 1537 1539 1540 1542 1543 1544 1545 1546 1547 1548 1549 1550 1551 1552 1554 1555
1482 1483 1484 1479 1483 1482 1476 1465 1465 1466 1469 1471 1475 1480 1485 1491 1495 1500 1504 1507 1509 1512 1515 1517 1520 1523 1526 1528 1530 1532 1534 1536 1538 1539 1541 1542 1544 1545 1546 1547 1548 1550 1551 1552 1553 1554 1555 1556 1557
1484 1484 1481 1477 1477 1466 1463 1463 1464 1468 1470 1472 1476 1483 1491 1494 1498 1502 1506 1509 1511 1513 1516 1519 1522 1525 1527 1529 1532 1534 1536 1538 1539 1541 1543 1544 1546 1547 1548 1549 1550 1552 1553 1554 1555 1556 1557 1558 1560
1486 1484 1482 1482 1470 1460 1458 1462 1465 1469 1470 1473 1479 1487 1494 1498 1500 1504 1507 1510 1512 1515 1517 1520 1523 1526 1528 1531 1533 1535 1537 1539 1541 1543 1544 1546 1547 1549 1550 1551 1553 1554 1555 1556 1557 1559 1560 1561 1562
1485 1482 1487 1486 1469 1459 1459 1462 1466 1469 1471 1474 1480 1488 1497 1501 1502 1506 1509 1512 1514 1516 1519 1522 1525 1527 1530 1532 1535 1537 1539 1541 1542 1544 1546 1548 1549 1551 1552 1553 1555 1556 1557 1558 1560 1561 1562 1563 1564
1483 1480 1480 1476 1468 1463 1460 1463 1466 1469 1472 1476 1480 1488 1497 1501 1504 1507 1510 1514 1516 1518 1520 1523 1526 1528 1531 1533 1536 1538 1540 1542 1544 1546 1547 1549 1551 1552 1553 1555 1556 1558 1559 1560 1561 1562 1564 1565 1566
1480 1478 1475 1468 1466 1466 1461 1463 1467 1469 1473 1476 1480 1488 1495 1501 1504 1507 1511 1515 1518 1520 1522 1524 1527 1529 1532 1534 1537 1539 1541 1543 1545 1547 1549 1550 1552 1554 1555 1557 1558 1559 1561 1562 1563 1564 1565 1567 1568
1479 1480 1479 1468 1464 1464 1462 1464 1467 1471 1474 1478 1481 1485 1492 1499 1504 1507 1512 1516 1519 1521 1523 1526 1528 1530 1533 1535 1538 1540 1542 1544 1546 1548 1550 1552 1553 1555 1557 1558 1559 1561 1562 1564 1565 1566 1567 1568 1570
1476 1479 1471 1461 1458 1460 1463 1465 1468 1471 1476 1482 1487 1490 1494 1499 1503 1507 1511 1515 1518 1522 1525 1527 1529 1532 1535 1537 1538 1541 1543 1545 1547 1549 1551 1553 1555 1557 1558 1560 1561 1562 1564 1565 1566 1567 1569 1570 1571
1471 1471 1464 1461 1460 1461 1462 1464 1467 1470 1479 1484 1489 1491 1496 1499 1503 1506 1510 1514 1518 1522 1525 1527 1530 1533 1536 1538 1539 1541 1544 1545 1548 1550 1552 1554 1556 1558 1559 1560 1562 1563 1565 1566 1568 1569 1569 1571 1573
1468 1465 1463 1462 1462 1462 1462 1463 1466 1470 1476 1480 1485 1490 1495 1498 1502 1506 1510 1514 1517 1521 1524 1527 1529 1532 1536 1538 1540 1542 1544 1546 1548 1550 1552 1555 1557 1559 1560 1561 1562 1564 1566 1567 1569 1570 1571 1573 1574
1466 1464 1462 1462 1462 1462 1463 1465 1468 1471 1475 1479 1484 1490 1494 1497 1501 1505 1509 1513 1516 1520 1523 1526 1528 1532 1535 1537 1540 1543 1544 1546 1548 1550 1552 1555 1557 1559 1560 1562 1563 1565 1567 1568 1569 1571 1572 1573 1575
1465 1463 1462 1461 1461 1462 1464 1465 1469 1471 1475 1479 1484 1489 1493 1496 1500 1504 1508 1511 1514 1518 1522 1524 1527 1530 1533 1536 1539 1542 1544 1546 1548 1550 1552 1554 1557 1559 1560 1562 1563 1565 1567 1568 1570 1571 1572 1574 1575
1466 1465 1462 1459 1459 1460 1463 1467 1469 1471 1474 1478 1483 1488 1492 1496 1499 1502 1506 1509 1513 1517 1520 1523 1525 1528 1531 1534 1537 1541 1543 1545 1547 1549 1551 1553 1556 1558 1560 1561 1563 1565 1567 1568 1570 1571 1572 1574 1575
1465 1466 1467 1457 1456 1458 1466 1476 1468 1470 1473 1476 1481 1486 1491 1495 1498 1501 1504 1508 1511 1515 1518 1521 1524 1526 1529 1532 1535 1539 1542 1544 1545 1547 1549 1552 1555 1556 1558 1561 1563 1564 1566 1568 1569 1571 1572 1574 1575
1467 1470 1465 1457 1452 1455 1462 1471 1467 1470 1471 1474 1478 1484 1489 1493 1497 1500 1503 1506 1510 1512 1515 1518 1522 1524 1527 1529 1533 1536 1539 1541 1543 1546 1548 1550 1553 1555 1557 1560 1562 1563 1565 1567 1569 1570 1572 1573 1574
1467 1462 1458 1458 1451 1455 1461 1465 1466 1465 1469 1471 1475 1481 1486 1491 1495 1499 1502 1505 1508 1511 1514 1516 1519 1522 1524 1527 1530 1533 1537 1539 1541 1544 1546 1548 1551 1553 1555 1558 1560 1562 1564 1566 1568 1569 1571 1572 1574
1458 1459 1459 1454 1448 1455 1461 1463 1461 1463 1465 1468 1472 1478 1484 1488 1493 1497 1501 1504 1506 1509 1511 1514 1516 1519 1521 1524 1526 1530 1533 1536 1539 1542 1544 1547 1549 1551 1554 1557 1558 1560 1563 1564 1566 1568 1569 1571 1573
1460 1464 1460 1453 1449 1455 1460 1461 1457 1458 1461 1465 1470 1476 1481 1486 1491 1495 1499 1502 1504 1506 1508 1511 1513 1516 1518 1521 1524 1527 1531 1534 1536 1539 1542 1544 1547 1549 1552 1554 1556 1559 1561 1563 1565 1566 1568 1570 1572
1463 1464 1460 1458 1451 1452 1460 1466 1460 1458 1459 1465 1469 1473 1477 1482 1487 1491 1496 1499 1501 1503 1506 1508 1511 1513 1516 1519 1522 1526 1529 1532 1535 1537 1539 1542 1544 1547 1550 1552 1555 1557 1559 1561 1563 1564 1566 1568 1570
1466 1457 1456 1457 1462 1465 1462 1477 1463 1458 1460 1463 1466 1470 1474 1478 1483 1489 1493 1496 1499 1501 1504 1507 1509 1512 1514 1517 1520 1523 1525 1528 1531 1534 1537 1539 1542 1544 1547 1550 1552 1555 1557 1559 1561 1562 1565 1567 1568
1459 1452 1455 1458 1463 1467 1461 1470 1466 1459 1464 1464 1464 1467 1471 1476 1481 1486 1490 1493 1497 1500 1503 1505 1507 1510 1512 1515 1518 1521 1524 1527 1529 1532 1535 1537 1539 1541 1544 1547 1550 1552 1554 1557 1559 1560 1562 1564 1566
1453 1456 1458 1459 1463 1479 1467 1470 1471 1461 1463 1463 1464 1467 1471 1475 1479 1485 1489 1492 1496 1499 1501 1503 1505 1508 1510 1513 1515 1518 1521 1524 1527 1529 1531 1534 1536 1539 1541 1544 1547 1549 1552 1554 1556 1558 1560 1562 1564
1455 1467 1481 1485 1484 1479 1460 1465 1463 1454 1456 1461 1463 1467 1470 1474 1479 1484 1488 1492 1495 1498 1500 1502 1504 1506 1508 1511 1513 1515 1518 1521 1523 1526 1528 1530 1533 1536 1538 1541 1543 1546 1548 1551 1553 1555 1557 1559 1561
1456 1461 1480 1489 1485 1476 1465 1468 1456 1448 1453 1459 1462 1466 1470 1475 1480 1484 1489 1492 1495 1497 1499 1501 1502 1504 1506 1509 1511 1513 1515 1518 1520 1523 1525 1528 1530 1532 1535 1538 1540 1543 1545 1548 1550 1552 1554 1556 1558
1452 1456 1452 1462 1466 1475 1471 1463 1455 1448 1453 1457 1462 1466 1470 1475 1480 1484 1489 1492 1495 1497 1498 1500 1501 1503 1505 1506 1508 1510 1513 1515 1517 1519 1522 1524 1526 1529 1532 1534 1537 1539 1542 1544 1547 1549 1551 1553 1555
1443 1446 1454 1463 1477 1484 1474 1468 1467 1458 1456 1456 1460 1465 1470 1475 1480 1485 1489 1492 1495 1496 1498 1499 1500 1502 1504 1505 1507 1508 1510 1512 1514 1516 1518 1520 1522 1525 1528 1530 1533 1536 1538 1541 1543 1545 1548 1550 1551
1447 1448 1450 1454 1458 1474 1482 1479 1455 1456 1456 1457 1461 1466 1471 1477 1481 1485 1489 1493 1495 1497 1498 1499 1500 1501 1502 1504 1505 1507 1508 1509 1511 1513 1515 1516 1519 1521 1524 1527 1529 1532 1534 1537 1539 1541 1544 1546 1548
1436 1441 1446 1463 1464 1458 1467 1475 1453 1456 1456 1459 1463 1468 1474 1478 1482 1487 1490 1493 1495 1497 1498 1499 1500 1501 1501 1503 1504 1505 1506 1507 1509 1510 1512 1513 1515 1518 1520 1523 1526 1528 1530 1532 1535 1537 1540 1542 1544